EUTELSAT 174A

Last updated on Sun Jun 21 2026 00:03:03 GMT+0000 (Coordinated Universal Time)

1 28924U 05052A 26171.35522177 .00000003 00000+0 00000+0 0 9997 2 28924 4.2287 76.4905 0006308 11.1427 122.7677 1.00272302 52369
UTC large
Height (km)
Speed (km/s)
/
Latitude / Longitude
Inclination (degrees)
Orbital Period (minutes)
Azimuth
Elevation
Range (km)
Doppler Factor

Next 0 passes for location: London (51.5072 / 0.1276)

No passes found over London.
EUTELSAT 174A